Tracking 28518 objects as of 1-Mar-2024
HD Live streaming from Space Station
objects crossing your sky now

ARABSAT 2B

Track ARABSAT 2B now!
ARABSAT 2B is classified as:


NORAD ID: 24652
Int'l Code: 1996-063A
Perigee: 36,028.8 km
Apogee: 36,041.4 km
Inclination: 8.8 °
Period: 1,448.4 minutes
Semi major axis: 42406 km
RCS: 3.8888 m2 (large)
Launch date: November 13, 1996
Source: Arab Satellite Communications Organization (AB)
Launch site: FRENCH GUIANA (FRGUI)

Second generation; radio and tv communications to Middle East.
Your satellite tracking list
Your tracking list is empty




NASA's NSSDC Master Catalog

Two Line Element Set (TLE):
1 24652U 96063A   24059.80611181 -.00000267  00000-0  00000+0 0  9994
2 24652   8.7598  56.1191 0001486 221.9593 326.2419  0.99417113100105
Source of the keplerian elements: AFSPC